Погода в Эчкаюне

Россия / Ульяновская область     54°10′28″N   50°09′12″E
темп.,
°C
ветер,
м/с
пор.,
м/с
влажн.,
%
обл.,
%
осадки,
мм/ч
давл.,
гПа
погр.,
м
8 августа, пн
пн801:00+20св2262100 0.0 101912
04:00+20всв226199 0.0 102011
07:00+21св236552 0.0 102090
10:00+26св224941 0.0 1020603
13:00+29св223976 0.0 10202585
16:00+25с4653100 0.0 1019143
19:00+24ссв2252100 0.0 101917
22:00+21с3365100 0.0 101926
9 августа, вт
вт901:00+20св227673 0.0 101921
04:00+19ссв2281100 0.0 101924
07:00+21св1272100 0.0 102077
10:00+26ссв2254100 0.0 1020530
13:00+29св2243100 0.0 10191705
16:00+29всв224199 0.0 10181817
19:00+24с366796 0.0 1018176
22:00+20всв2281100 0.6 101920
10 августа, ср
ср1001:00+21вюв1177100 0.5 101911
04:00+19св1185100 1.6 101911
07:00+20сз1182100 1.2 101937
10:00+25вюв116146 1.4 1019437
13:00+29юв01455 0.0 10181441
16:00+30зюз1239100 0.0 10172181
19:00+27з225191 0.0 101631
22:00+22юз1164100 0.1 101713
11 августа, чт
чт1101:00+19сз367877 0.3 101798
04:00+18зсз3887100 0.3 1018183
07:00+19зсз2690100 0.5 1019294
10:00+21сз466839 0.5 1019811
13:00+24сз67360 0.0 10191567
16:00+23ссз774534 0.0 10201529
19:00+19ссз510590 0.0 10211153
22:00+15ссз23740 0.0 102241
12 августа, пт
пт1201:00+14сз3376100 0.0 102237
04:00+13сз228076 0.0 102315
07:00+15зсз246823 0.0 1023131
10:00+21сз464887 0.0 1023979
13:00+24сз453822 0.0 10222087
16:00+25сз563653 0.0 10202091
19:00+22сз24534 0.0 102073
22:00+17зсз22660 0.0 102118